Wetterdaten: Samstag, 04.04.2015
Datum Zeit Temp. A. Feuchte A. Luftdruck Regen Wind Richtung Richtung Sonnenschein ET UV Solar Taupunkt Windchill Windben Empfang
04.04.2015 00:00 1,3 C 68 % 1016,3 hPa 0,0 l/m 0,0 km/h (0 Bft) W-SW 251 0 min 0,000 mm 0,0 UV-I 0 W/m -3,9 C 1,3 C 0,0 km/h (0 Bft) 0,00 %
04.04.2015 00:15 1,3 C 68 % 1016,2 hPa 0,0 l/m 0,0 km/h (0 Bft) W-SW 251 0 min 0,000 mm 0,0 UV-I 0 W/m -3,9 C 1,3 C 0,0 km/h (0 Bft) 0,00 %
04.04.2015 00:30 0,7 C 71 % 1016,1 hPa 0,0 l/m 0,0 km/h (0 Bft) W-SW 250 0 min 0,000 mm 0,0 UV-I 0 W/m -3,9 C 0,7 C 0,0 km/h (0 Bft) 0,00 %
04.04.2015 00:45 0,2 C 72 % 1016,0 hPa 0,0 l/m 0,0 km/h (0 Bft) W-SW 250 0 min 0,000 mm 0,0 UV-I 0 W/m -4,2 C 0,2 C 0,0 km/h (0 Bft) 0,00 %
04.04.2015 01:00 0,1 C 73 % 1016,0 hPa 0,0 l/m 0,0 km/h (0 Bft) W-SW 250 0 min 0,000 mm 0,0 UV-I 0 W/m -4,2 C 0,1 C 0,0 km/h (0 Bft) 0,00 %
04.04.2015 01:15 -0,1 C 77 % 1015,9 hPa 0,0 l/m 0,0 km/h (0 Bft) S-SO 149 0 min 0,000 mm 0,0 UV-I 0 W/m -3,6 C -0,1 C 0,0 km/h (0 Bft) 0,00 %
04.04.2015 01:30 -0,1 C 78 % 1015,9 hPa 0,0 l/m 0,0 km/h (0 Bft) S 181 0 min 0,000 mm 0,0 UV-I 0 W/m -3,5 C -0,1 C 0,0 km/h (0 Bft) 0,00 %
04.04.2015 01:45 -0,1 C 78 % 1015,7 hPa 0,0 l/m 0,0 km/h (0 Bft) S 185 0 min 0,000 mm 0,0 UV-I 0 W/m -3,5 C -0,1 C 0,0 km/h (0 Bft) 0,00 %
04.04.2015 02:00 -0,2 C 79 % 1015,6 hPa 0,0 l/m 0,0 km/h (0 Bft) S 185 0 min 0,000 mm 0,0 UV-I 0 W/m -3,4 C -0,2 C 0,0 km/h (0 Bft) 0,00 %
04.04.2015 02:15 -0,1 C 79 % 1015,4 hPa 0,0 l/m 0,0 km/h (0 Bft) S 185 0 min 0,000 mm 0,0 UV-I 0 W/m -3,3 C -0,1 C 0,0 km/h (0 Bft) 0,00 %
04.04.2015 02:30 -0,1 C 79 % 1015,0 hPa 0,0 l/m 0,0 km/h (0 Bft) S 185 0 min 0,000 mm 0,0 UV-I 0 W/m -3,3 C -0,1 C 0,0 km/h (0 Bft) 0,00 %
04.04.2015 02:45 -0,1 C 78 % 1015,0 hPa 0,0 l/m 0,0 km/h (0 Bft) S 179 0 min 0,000 mm 0,0 UV-I 0 W/m -3,5 C -0,1 C 0,0 km/h (0 Bft) 0,00 %
04.04.2015 03:00 0,0 C 77 % 1014,9 hPa 0,0 l/m 0,0 km/h (0 Bft) S 179 0 min 0,000 mm 0,0 UV-I 0 W/m -3,5 C 0,0 C 0,0 km/h (0 Bft) 0,00 %
04.04.2015 03:15 0,0 C 77 % 1015,0 hPa 0,0 l/m 0,0 km/h (0 Bft) S 179 0 min 0,000 mm 0,0 UV-I 0 W/m -3,5 C 0,0 C 0,0 km/h (0 Bft) 0,00 %
04.04.2015 03:30 0,0 C 78 % 1014,8 hPa 0,0 l/m 0,0 km/h (0 Bft) S 179 0 min 0,000 mm 0,0 UV-I 0 W/m -3,4 C 0,0 C 0,0 km/h (0 Bft) 0,00 %
04.04.2015 03:45 -0,1 C 79 % 1014,7 hPa 0,0 l/m 0,0 km/h (0 Bft) S-SW 199 0 min 0,000 mm 0,0 UV-I 0 W/m -3,3 C -0,1 C 0,0 km/h (0 Bft) 0,00 %
04.04.2015 04:00 -0,1 C 80 % 1014,8 hPa 0,0 l/m 0,0 km/h (0 Bft) S 183 0 min 0,000 mm 0,0 UV-I 0 W/m -3,1 C -0,1 C 0,0 km/h (0 Bft) 0,00 %
04.04.2015 04:15 0,0 C 80 % 1014,4 hPa 0,0 l/m 0,0 km/h (0 Bft) S-SW 196 0 min 0,000 mm 0,0 UV-I 0 W/m -3,0 C 0,0 C 0,0 km/h (0 Bft) 0,00 %
04.04.2015 04:30 0,1 C 80 % 1014,5 hPa 0,0 l/m 0,0 km/h (0 Bft) S 181 0 min 0,000 mm 0,0 UV-I 0 W/m -2,9 C 0,1 C 0,0 km/h (0 Bft) 0,00 %
04.04.2015 04:45 0,1 C 81 % 1014,4 hPa 0,0 l/m 0,0 km/h (0 Bft) S-SW 195 0 min 0,000 mm 0,0 UV-I 0 W/m -2,8 C 0,1 C 0,0 km/h (0 Bft) 0,00 %
04.04.2015 05:00 0,1 C 80 % 1014,2 hPa 0,0 l/m 0,0 km/h (0 Bft) S 183 0 min 0,000 mm 0,0 UV-I 0 W/m -2,9 C 0,1 C 0,0 km/h (0 Bft) 0,00 %
04.04.2015 05:15 0,3 C 80 % 1014,2 hPa 0,0 l/m 0,0 km/h (0 Bft) S 173 0 min 0,000 mm 0,0 UV-I 0 W/m -2,7 C 0,3 C 0,0 km/h (0 Bft) 0,00 %
04.04.2015 05:30 0,3 C 80 % 1013,9 hPa 0,0 l/m 0,0 km/h (0 Bft) S 180 0 min 0,000 mm 0,0 UV-I 0 W/m -2,7 C 0,3 C 0,0 km/h (0 Bft) 0,00 %
04.04.2015 05:45 0,4 C 79 % 1013,8 hPa 0,0 l/m 0,0 km/h (0 Bft) SO 132 0 min 0,000 mm 0,0 UV-I 0 W/m -2,8 C 0,4 C 0,0 km/h (0 Bft) 0,00 %
04.04.2015 06:00 0,3 C 78 % 1014,0 hPa 0,0 l/m 0,0 km/h (0 Bft) SO 139 0 min 0,000 mm 0,0 UV-I 0 W/m -3,1 C 0,3 C 0,0 km/h (0 Bft) 0,00 %
04.04.2015 06:15 0,2 C 77 % 1013,9 hPa 0,0 l/m 0,0 km/h (0 Bft) O-SO 115 0 min 0,000 mm 0,0 UV-I 0 W/m -3,3 C 0,2 C 0,0 km/h (0 Bft) 0,00 %
04.04.2015 06:30 0,2 C 77 % 1014,0 hPa 0,0 l/m 0,0 km/h (0 Bft) S-SW 194 0 min 0,000 mm 0,0 UV-I 0 W/m -3,3 C 0,2 C 0,0 km/h (0 Bft) 0,00 %
04.04.2015 06:45 0,2 C 76 % 1014,0 hPa 0,0 l/m 0,0 km/h (0 Bft) S 190 0 min 0,000 mm 0,0 UV-I 0 W/m -3,5 C 0,2 C 0,0 km/h (0 Bft) 0,00 %
04.04.2015 07:00 0,4 C 76 % 1014,1 hPa 0,0 l/m 0,0 km/h (0 Bft) S-SW 195 0 min 0,000 mm 0,0 UV-I 0 W/m -3,3 C 0,4 C 0,0 km/h (0 Bft) 0,00 %
04.04.2015 07:15 0,5 C 77 % 1014,0 hPa 0,0 l/m 0,0 km/h (0 Bft) S-SW 203 0 min 0,000 mm 0,0 UV-I 0 W/m -3,1 C 0,5 C 0,0 km/h (0 Bft) 0,00 %
04.04.2015 07:30 0,5 C 77 % 1013,7 hPa 0,0 l/m 0,0 km/h (0 Bft) S 190 0 min 0,000 mm 0,0 UV-I 4 W/m -3,1 C 0,5 C 0,0 km/h (0 Bft) 0,00 %
04.04.2015 07:45 0,6 C 78 % 1013,8 hPa 0,0 l/m 0,0 km/h (0 Bft) S-SW 209 0 min 0,000 mm 0,0 UV-I 10 W/m -2,8 C 0,6 C 0,0 km/h (0 Bft) 0,00 %
04.04.2015 08:00 0,8 C 78 % 1013,9 hPa 0,0 l/m 0,0 km/h (0 Bft) S-SW 194 0 min 0,000 mm 0,0 UV-I 23 W/m -2,6 C 0,8 C 0,0 km/h (0 Bft) 0,00 %
04.04.2015 08:15 0,9 C 79 % 1013,8 hPa 0,0 l/m 0,0 km/h (0 Bft) S-SW 202 0 min 0,000 mm 1,0 UV-I 30 W/m -2,3 C 0,9 C 0,0 km/h (0 Bft) 0,00 %
04.04.2015 08:30 1,1 C 79 % 1013,6 hPa 0,3 l/m 0,0 km/h (0 Bft) S-SW 195 0 min 0,000 mm 1,0 UV-I 45 W/m -2,1 C 1,1 C 0,0 km/h (0 Bft) 0,00 %
04.04.2015 08:45 1,3 C 78 % 1013,6 hPa 0,0 l/m 0,0 km/h (0 Bft) S-SW 192 0 min 0,000 mm 1,0 UV-I 46 W/m -2,1 C 1,3 C 0,0 km/h (0 Bft) 0,00 %
04.04.2015 09:00 1,8 C 79 % 1013,2 hPa 0,3 l/m 0,0 km/h (0 Bft) S 179 0 min 0,000 mm 1,0 UV-I 74 W/m -1,4 C 1,8 C 0,0 km/h (0 Bft) 0,00 %
04.04.2015 09:15 2,5 C 83 % 1013,0 hPa 0,0 l/m 0,0 km/h (0 Bft) S 189 0 min 0,000 mm 2,0 UV-I 120 W/m -0,1 C 2,5 C 0,0 km/h (0 Bft) 0,00 %
04.04.2015 09:30 3,1 C 83 % 1012,8 hPa 0,0 l/m 0,0 km/h (0 Bft) S 191 0 min 0,000 mm 1,0 UV-I 146 W/m 0,5 C 3,1 C 0,0 km/h (0 Bft) 0,00 %
04.04.2015 09:45 3,7 C 81 % 1012,6 hPa 0,0 l/m 0,0 km/h (0 Bft) S-SW 209 0 min 0,000 mm 2,0 UV-I 170 W/m 0,7 C 3,7 C 0,0 km/h (0 Bft) 0,00 %
04.04.2015 10:00 4,5 C 78 % 1012,2 hPa 0,0 l/m 0,0 km/h (0 Bft) S-SW 192 0 min 0,000 mm 2,0 UV-I 211 W/m 1,0 C 4,5 C 0,0 km/h (0 Bft) 0,00 %
04.04.2015 10:15 4,9 C 75 % 1012,0 hPa 0,0 l/m 0,0 km/h (0 Bft) SW 232 0 min 0,000 mm 2,0 UV-I 251 W/m 0,8 C 4,9 C 0,0 km/h (0 Bft) 0,00 %
04.04.2015 10:30 5,3 C 71 % 1012,0 hPa 0,0 l/m 0,0 km/h (0 Bft) S-SW 201 0 min 0,000 mm 2,0 UV-I 217 W/m 0,5 C 5,3 C 0,0 km/h (0 Bft) 0,00 %
04.04.2015 10:45 5,5 C 71 % 1011,8 hPa 0,0 l/m 0,0 km/h (0 Bft) N-NW 331 0 min 0,000 mm 2,0 UV-I 276 W/m 0,7 C 5,5 C 0,0 km/h (0 Bft) 0,00 %
04.04.2015 11:00 4,6 C 75 % 1012,1 hPa 0,0 l/m 0,4 km/h (0 Bft) W-NW 300 0 min 0,000 mm 2,0 UV-I 230 W/m 0,6 C 4,6 C 4,0 km/h (1 Bft) 0,00 %
04.04.2015 11:15 4,8 C 72 % 1012,1 hPa 0,0 l/m 0,0 km/h (0 Bft) S 173 0 min 0,000 mm 3,0 UV-I 279 W/m 0,2 C 4,8 C 0,0 km/h (0 Bft) 0,00 %
04.04.2015 11:30 5,6 C 69 % 1011,6 hPa 0,0 l/m 0,0 km/h (0 Bft) N-NW 340 0 min 0,000 mm 3,0 UV-I 305 W/m 0,4 C 5,6 C 0,0 km/h (0 Bft) 0,00 %
04.04.2015 11:45 5,7 C 66 % 1011,6 hPa 0,0 l/m 0,4 km/h (0 Bft) W-NW 298 0 min 0,000 mm 3,0 UV-I 322 W/m -0,1 C 5,7 C 4,0 km/h (1 Bft) 0,00 %
04.04.2015 12:00 6,4 C 61 % 1011,5 hPa 0,0 l/m 0,0 km/h (0 Bft) SW 219 0 min 0,000 mm 3,0 UV-I 356 W/m -0,6 C 6,4 C 0,0 km/h (0 Bft) 0,00 %
04.04.2015 12:15 6,6 C 60 % 1011,1 hPa 0,0 l/m 0,0 km/h (0 Bft) SW 216 0 min 0,000 mm 3,0 UV-I 362 W/m -0,6 C 6,6 C 0,0 km/h (0 Bft) 0,00 %
04.04.2015 12:30 6,3 C 62 % 1011,2 hPa 0,0 l/m 0,0 km/h (0 Bft) NW 311 0 min 0,000 mm 3,0 UV-I 384 W/m -0,4 C 6,3 C 0,0 km/h (0 Bft) 0,00 %
04.04.2015 12:45 6,7 C 61 % 1011,0 hPa 0,0 l/m 0,0 km/h (0 Bft) N-NW 341 0 min 0,000 mm 3,0 UV-I 354 W/m -0,3 C 6,7 C 0,0 km/h (0 Bft) 0,00 %
04.04.2015 13:00 6,9 C 59 % 1010,8 hPa 0,0 l/m 0,0 km/h (0 Bft) S-SW 199 0 min 0,000 mm 3,0 UV-I 352 W/m -0,5 C 6,9 C 0,0 km/h (0 Bft) 0,00 %
04.04.2015 13:15 7,9 C 52 % 1010,7 hPa 0,0 l/m 0,0 km/h (0 Bft) S 171 0 min 0,000 mm 4,0 UV-I 352 W/m -1,3 C 7,9 C 0,0 km/h (0 Bft) 0,00 %
04.04.2015 13:30 7,6 C 52 % 1010,5 hPa 0,0 l/m 1,8 km/h (1 Bft) S-SO 150 0 min 0,000 mm 4,0 UV-I 387 W/m -1,6 C 7,6 C 4,0 km/h (1 Bft) 0,00 %
04.04.2015 13:45 7,9 C 52 % 1010,2 hPa 0,0 l/m 0,7 km/h (0 Bft) O-NO 66 15 min 0,000 mm 3,0 UV-I 424 W/m -1,3 C 7,9 C 4,0 km/h (1 Bft) 0,00 %
04.04.2015 14:00 7,9 C 49 % 1010,1 hPa 0,0 l/m 0,0 km/h (0 Bft) O-SO 106 15 min 0,000 mm 4,0 UV-I 422 W/m -2,1 C 7,9 C 0,0 km/h (0 Bft) 0,00 %
04.04.2015 14:15 8,1 C 46 % 1010,1 hPa 0,0 l/m 1,4 km/h (1 Bft) O-SO 110 15 min 0,000 mm 3,0 UV-I 468 W/m -2,8 C 8,1 C 4,0 km/h (1 Bft) 0,00 %
04.04.2015 14:30 8,9 C 49 % 1009,6 hPa 0,0 l/m 4,0 km/h (1 Bft) N-NW 339 0 min 0,000 mm 3,0 UV-I 361 W/m -1,2 C 8,9 C 4,0 km/h (1 Bft) 0,00 %
04.04.2015 14:45 8,3 C 44 % 1009,6 hPa 0,0 l/m 4,3 km/h (1 Bft) O 97 15 min 0,000 mm 3,0 UV-I 398 W/m -3,2 C 8,3 C 7,9 km/h (2 Bft) 0,00 %
04.04.2015 15:00 8,4 C 41 % 1009,4 hPa 0,0 l/m 4,0 km/h (1 Bft) O 97 15 min 0,000 mm 2,0 UV-I 374 W/m -4,1 C 8,4 C 7,9 km/h (2 Bft) 0,00 %
04.04.2015 15:15 8,5 C 40 % 1009,3 hPa 0,0 l/m 0,0 km/h (0 Bft) S-SO 153 0 min 0,000 mm 2,0 UV-I 233 W/m -4,3 C 8,5 C 0,0 km/h (0 Bft) 0,00 %
04.04.2015 15:30 8,5 C 41 % 1009,4 hPa 0,0 l/m 1,4 km/h (1 Bft) O 81 0 min 0,000 mm 2,0 UV-I 239 W/m -4,0 C 8,5 C 4,0 km/h (1 Bft) 0,00 %
04.04.2015 15:45 8,4 C 42 % 1009,3 hPa 0,0 l/m 0,7 km/h (0 Bft) W-SW 256 0 min 0,000 mm 2,0 UV-I 201 W/m -3,8 C 8,4 C 4,0 km/h (1 Bft) 0,00 %
04.04.2015 16:00 7,2 C 44 % 1009,6 hPa 0,0 l/m 0,7 km/h (0 Bft) W-NW 285 0 min 0,000 mm 2,0 UV-I 167 W/m -4,2 C 7,2 C 4,0 km/h (1 Bft) 0,00 %
04.04.2015 16:15 7,6 C 45 % 1009,6 hPa 0,0 l/m 2,2 km/h (1 Bft) W-NW 291 0 min 0,000 mm 2,0 UV-I 180 W/m -3,6 C 7,6 C 4,0 km/h (1 Bft) 0,00 %
04.04.2015 16:30 7,2 C 46 % 1009,7 hPa 0,0 l/m 0,0 km/h (0 Bft) SW 233 0 min 0,000 mm 1,0 UV-I 134 W/m -3,6 C 7,2 C 0,0 km/h (0 Bft) 0,00 %
04.04.2015 16:45 7,3 C 45 % 1009,9 hPa 0,0 l/m 0,0 km/h (0 Bft) S 177 0 min 0,000 mm 1,0 UV-I 170 W/m -3,8 C 7,3 C 0,0 km/h (0 Bft) 0,00 %
04.04.2015 17:00 7,1 C 48 % 1009,9 hPa 0,0 l/m 8,3 km/h (2 Bft) O-SO 103 0 min 0,000 mm 1,0 UV-I 158 W/m -3,2 C 5,6 C 11,9 km/h (2 Bft) 0,00 %
04.04.2015 17:15 6,8 C 48 % 1010,2 hPa 0,0 l/m 0,0 km/h (0 Bft) S-SW 203 0 min 0,000 mm 1,0 UV-I 131 W/m -3,4 C 6,8 C 0,0 km/h (0 Bft) 0,00 %
04.04.2015 17:30 6,7 C 48 % 1010,2 hPa 0,0 l/m 0,0 km/h (0 Bft) O-NO 73 0 min 0,000 mm 1,0 UV-I 104 W/m -3,5 C 6,7 C 0,0 km/h (0 Bft) 0,00 %
04.04.2015 17:45 6,6 C 49 % 1010,4 hPa 0,0 l/m 0,0 km/h (0 Bft) S 173 0 min 0,000 mm 1,0 UV-I 88 W/m -3,3 C 6,6 C 0,0 km/h (0 Bft) 0,00 %
04.04.2015 18:00 6,5 C 49 % 1010,4 hPa 0,0 l/m 0,0 km/h (0 Bft) SW 231 0 min 0,000 mm 1,0 UV-I 65 W/m -3,4 C 6,5 C 0,0 km/h (0 Bft) 0,00 %
04.04.2015 18:15 6,4 C 50 % 1010,6 hPa 0,0 l/m 4,3 km/h (1 Bft) O-SO 104 0 min 0,000 mm 0,0 UV-I 50 W/m -3,2 C 6,4 C 11,9 km/h (2 Bft) 0,00 %
04.04.2015 18:30 5,5 C 61 % 1011,2 hPa 0,0 l/m 8,3 km/h (2 Bft) O-SO 112 0 min 0,000 mm 0,0 UV-I 6 W/m -1,4 C 3,9 C 11,9 km/h (2 Bft) 0,00 %
04.04.2015 18:45 5,2 C 61 % 1011,3 hPa 0,0 l/m 5,4 km/h (1 Bft) SO 132 0 min 0,000 mm 0,0 UV-I 5 W/m -1,7 C 5,2 C 7,9 km/h (2 Bft) 0,00 %
04.04.2015 19:00 5,0 C 58 % 1011,2 hPa 0,0 l/m 0,4 km/h (0 Bft) W-SW 257 0 min 0,000 mm 0,0 UV-I 4 W/m -2,6 C 5,0 C 4,0 km/h (1 Bft) 0,00 %
04.04.2015 19:15 5,0 C 60 % 1011,4 hPa 0,0 l/m 0,0 km/h (0 Bft) S-SW 198 0 min 0,000 mm 0,0 UV-I 3 W/m -2,1 C 5,0 C 0,0 km/h (0 Bft) 0,00 %
04.04.2015 19:30 4,9 C 61 % 1011,3 hPa 0,0 l/m 0,0 km/h (0 Bft) S-SW 198 0 min 0,000 mm 0,0 UV-I 0 W/m -2,0 C 4,9 C 0,0 km/h (0 Bft) 0,00 %
04.04.2015 19:45 4,8 C 63 % 1011,7 hPa 0,0 l/m 0,0 km/h (0 Bft) SW 234 0 min 0,000 mm 0,0 UV-I 0 W/m -1,6 C 4,8 C 0,0 km/h (0 Bft) 0,00 %
04.04.2015 20:00 4,6 C 65 % 1011,9 hPa 0,0 l/m 1,8 km/h (1 Bft) O-SO 109 0 min 0,000 mm 0,0 UV-I 0 W/m -1,4 C 4,6 C 4,0 km/h (1 Bft) 0,00 %
04.04.2015 20:15 4,4 C 67 % 1012,0 hPa 0,0 l/m 0,0 km/h (0 Bft) S-SW 204 0 min 0,000 mm 0,0 UV-I 0 W/m -1,2 C 4,4 C 0,0 km/h (0 Bft) 0,00 %
04.04.2015 20:30 4,3 C 68 % 1012,0 hPa 0,0 l/m 0,0 km/h (0 Bft) S-SW 205 0 min 0,000 mm 0,0 UV-I 0 W/m -1,1 C 4,3 C 0,0 km/h (0 Bft) 0,00 %
04.04.2015 20:45 4,2 C 67 % 1012,4 hPa 0,0 l/m 0,0 km/h (0 Bft) SO 140 0 min 0,000 mm 0,0 UV-I 0 W/m -1,4 C 4,2 C 0,0 km/h (0 Bft) 0,00 %
04.04.2015 21:00 4,0 C 68 % 1012,6 hPa 0,0 l/m 0,0 km/h (0 Bft) W-SW 252 0 min 0,000 mm 0,0 UV-I 0 W/m -1,4 C 4,0 C 0,0 km/h (0 Bft) 0,00 %
04.04.2015 21:15 3,8 C 68 % 1012,6 hPa 0,0 l/m 0,0 km/h (0 Bft) S 188 0 min 0,000 mm 0,0 UV-I 0 W/m -1,6 C 3,8 C 0,0 km/h (0 Bft) 0,00 %
04.04.2015 21:30 3,7 C 69 % 1012,9 hPa 0,0 l/m 0,0 km/h (0 Bft) S 172 0 min 0,000 mm 0,0 UV-I 0 W/m -1,4 C 3,7 C 0,0 km/h (0 Bft) 0,00 %
04.04.2015 21:45 3,6 C 70 % 1012,8 hPa 0,0 l/m 0,0 km/h (0 Bft) S 173 0 min 0,000 mm 0,0 UV-I 0 W/m -1,3 C 3,6 C 0,0 km/h (0 Bft) 0,00 %
04.04.2015 22:00 3,5 C 72 % 1013,1 hPa 0,0 l/m 0,0 km/h (0 Bft) S-SW 195 0 min 0,000 mm 0,0 UV-I 0 W/m -1,1 C 3,5 C 0,0 km/h (0 Bft) 0,00 %
04.04.2015 22:15 3,4 C 73 % 1013,2 hPa 0,0 l/m 0,0 km/h (0 Bft) N-NO 24 0 min 0,000 mm 0,0 UV-I 0 W/m -1,0 C 3,4 C 0,0 km/h (0 Bft) 0,00 %
04.04.2015 22:30 3,5 C 72 % 1013,5 hPa 0,0 l/m 0,0 km/h (0 Bft) W-SW 255 0 min 0,000 mm 0,0 UV-I 0 W/m -1,1 C 3,5 C 0,0 km/h (0 Bft) 0,00 %
04.04.2015 22:45 3,5 C 71 % 1013,4 hPa 0,0 l/m 0,0 km/h (0 Bft) SW 225 0 min 0,000 mm 0,0 UV-I 0 W/m -1,3 C 3,5 C 0,0 km/h (0 Bft) 0,00 %
04.04.2015 23:00 3,5 C 72 % 1013,5 hPa 0,0 l/m 0,0 km/h (0 Bft) SW 221 0 min 0,000 mm 0,0 UV-I 0 W/m -1,1 C 3,5 C 0,0 km/h (0 Bft) 0,00 %
04.04.2015 23:15 3,4 C 72 % 1013,9 hPa 0,0 l/m 0,0 km/h (0 Bft) S-SO 162 0 min 0,000 mm 0,0 UV-I 0 W/m -1,2 C 3,4 C 0,0 km/h (0 Bft) 0,00 %
04.04.2015 23:30 3,3 C 73 % 1013,9 hPa 0,0 l/m 0,0 km/h (0 Bft) S 188 0 min 0,000 mm 0,0 UV-I 0 W/m -1,1 C 3,3 C 0,0 km/h (0 Bft) 0,00 %
04.04.2015 23:45 3,2 C 68 % 1014,2 hPa 0,0 l/m 0,7 km/h (0 Bft) S 174 0 min 0,000 mm 0,0 UV-I 0 W/m -2,1 C 3,2 C 4,0 km/h (1 Bft) 0,00 %
_ Min-Zeit 02:00 15:15 15:15 - 00:00 - - - - - - 15:15 02:00 00:00 00:00
Minimum _ -0,2 C 40 % 1009,3 hPa - 0,0 km/h (0 Bft) - - - - - - -4,3 C -0,2 C 0,0 km/h (0 Bft) 0,00 %
_ Max-Zeit 14:30 09:15 00:00 08:30 17:00 - - 13:45 00:00 13:15 14:15 10:00 14:30 17:00 00:00
Maximum _ 8,9 C 83 % 1016,3 hPa 0,3 l/m 8,3 km/h
O-SO (2 Bft)
- - 15 min 0,000 mm 4,0 UV-I 468 W/m 1,0 C 8,9 C 11,9 km/h
O-SO (2 Bft)
0,00 %
Durchschnitt _ 3,6 C 67 % 1012,6 hPa #0,6 l/m 0,5 km/h (0 Bft) O-SO - #1:15 h #0,000 mm 2,2 UV-I 202 W/m -2,2 C 3,6 C 1,2 km/h (1 Bft) 0,00 %